| time (UTC) | temp F | wind direction | speed MPH | gust MPH | rain 1hr in | rain 24hr in | rain mn in | humidity % | barometer mb |
| 20260506114519 | 55 | 277 | 0.0 | 3.0 | 0.00 | 0.00 | 0.00 | 86 | 1014.2 |
| 20260506113029 | 55 | 257 | 0.0 | 2.0 | 0.00 | 0.00 | 0.00 | 87 | 1014.0 |
| 20260506111553 | 55 | 289 | 0.0 | 2.0 | 0.00 | 0.00 | 0.00 | 86 | 1014.0 |
| 20260506110036 | 55 | 346 | 0.0 | 2.0 | 0.00 | 0.00 | 0.00 | 86 | 1014.0 |
| 20260506104616 | 55 | 350 | 0.0 | 1.0 | 0.00 | 0.00 | 0.00 | 87 | 1013.9 |
| 20260506103025 | 55 | 350 | 0.0 | 0.0 | 0.00 | 0.00 | 0.00 | 87 | 1013.9 |
| 20260506101556 | 55 | 350 | 0.0 | 0.0 | 0.00 | 0.00 | 0.00 | 87 | 1013.9 |
| 20260506100035 | 55 | 350 | 0.0 | 0.0 | 0.00 | 0.01 | 0.00 | 87 | 1013.8 |
| 20260506094605 | 55 | 350 | 0.0 | 1.0 | 0.00 | 0.01 | 0.00 | 87 | 1013.9 |
| 20260506094507 | 55 | 350 | 0.0 | 1.0 | 0.00 | 0.01 | 0.00 | 86 | 1013.9 |
| 20260506093027 | 55 | 350 | 0.0 | 1.0 | 0.00 | 0.01 | 0.00 | 86 | 1013.9 |
| 20260506091552 | 55 | 350 | 0.0 | 3.0 | 0.00 | 0.01 | 0.00 | 86 | 1013.8 |
| 20260506084528 | 55 | 346 | 0.0 | 5.0 | 0.00 | 0.03 | 0.00 | 85 | 1013.8 |
| 20260506083047 | 55 | 176 | 1.0 | 3.0 | 0.00 | 0.03 | 0.00 | 85 | 1013.7 |
| 20260506081508 | 55 | 177 | 1.0 | 4.0 | 0.00 | 0.03 | 0.00 | 85 | 1014.0 |
| 20260506073027 | 55 | 194 | 0.0 | 2.0 | 0.00 | 0.09 | 0.03 | 85 | 1013.5 |
| 20260506071607 | 55 | 215 | 0.0 | 2.0 | 0.00 | 0.09 | 0.03 | 85 | 1013.4 |
| 20260506061552 | 55 | 244 | 1.0 | 4.0 | 0.00 | 0.11 | 0.03 | 85 | 1013.1 |
| 20260506044510 | 55 | 254 | 2.0 | 7.0 | 0.00 | 0.17 | 0.03 | 90 | 1012.6 |
| 20260506043031 | 55 | 171 | 3.0 | 7.0 | 0.00 | 0.17 | 0.03 | 89 | 1012.4 |
| 20260506041603 | 55 | 236 | 2.0 | 8.0 | 0.00 | 0.17 | 0.03 | 89 | 1012.2 |
| 20260506040040 | 55 | 202 | 3.0 | 10.0 | 0.00 | 0.17 | 0.03 | 91 | 1011.9 |
| 20260506034504 | 55 | 207 | 3.0 | 10.0 | 0.00 | 0.17 | 0.03 | 91 | 1011.6 |
| 20260506033031 | 55 | 224 | 4.0 | 11.0 | 0.00 | 0.17 | 0.03 | 91 | 1011.5 |
| 20260506031555 | 55 | 193 | 4.0 | 12.0 | 0.00 | 0.17 | 0.03 | 91 | 1011.3 |
| 20260506030036 | 55 | 236 | 4.0 | 12.0 | 0.00 | 0.17 | 0.03 | 91 | 1011.2 |
| 20260506024601 | 56 | 188 | 2.0 | 12.0 | 0.00 | 0.17 | 0.03 | 90 | 1011.1 |
| 20260506024501 | 56 | 216 | 4.0 | 12.0 | 0.00 | 0.17 | 0.03 | 90 | 1011.1 |
| 20260506023026 | 56 | 247 | 3.0 | 11.0 | 0.00 | 0.17 | 0.03 | 90 | 1011.1 |
| 20260506021555 | 56 | 234 | 4.0 | 14.0 | 0.00 | 0.17 | 0.03 | 90 | 1010.8 |
| 20260506020034 | 56 | 258 | 5.0 | 12.0 | 0.00 | 0.17 | 0.03 | 89 | 1010.5 |
| 20260506014559 | 56 | 217 | 5.0 | 14.0 | 0.00 | 0.17 | 0.03 | 88 | 1010.5 |
| 20260506013029 | 57 | 156 | 5.0 | 13.0 | 0.00 | 0.17 | 0.03 | 87 | 1010.6 |
| 20260506011550 | 57 | 243 | 3.0 | 12.0 | 0.00 | 0.17 | 0.03 | 87 | 1010.4 |
| 20260506010041 | 58 | 234 | 6.0 | 11.0 | 0.00 | 0.17 | 0.03 | 86 | 1010.5 |
| 20260506004516 | 58 | 237 | 4.0 | 10.0 | 0.00 | 0.17 | 0.03 | 85 | 1010.3 |
| 20260506003033 | 59 | 219 | 4.0 | 9.0 | 0.00 | 0.17 | 0.03 | 84 | 1010.3 |
| 20260506001609 | 59 | 202 | 6.0 | 12.0 | 0.00 | 0.17 | 0.03 | 84 | 1010.2 |
| 20260506000040 | 59 | 234 | 5.0 | 11.0 | 0.00 | 0.17 | 0.03 | 85 | 1010.1 |
| 20260505234601 | 58 | 178 | 5.0 | 11.0 | 0.00 | 0.17 | 0.03 | 85 | 1010.1 |
| 20260505233026 | 58 | 294 | 5.0 | 11.0 | 0.00 | 0.17 | 0.03 | 85 | 1010.1 |
| 20260505231554 | 59 | 198 | 4.0 | 12.0 | 0.00 | 0.17 | 0.03 | 84 | 1010.3 |
| 20260505230046 | 60 | 213 | 5.0 | 12.0 | 0.00 | 0.17 | 0.03 | 83 | 1010.2 |
| 20260505224514 | 60 | 213 | 6.0 | 15.0 | 0.00 | 0.17 | 0.03 | 82 | 1010.2 |
| 20260505223043 | 61 | 229 | 4.0 | 10.0 | 0.00 | 0.17 | 0.03 | 82 | 1010.1 |
| 20260505221554 | 61 | 232 | 4.0 | 10.0 | 0.00 | 0.17 | 0.03 | 84 | 1010.2 |
| 20260505220039 | 60 | 196 | 3.0 | 11.0 | 0.00 | 0.17 | 0.03 | 85 | 1010.3 |
| 20260505214607 | 58 | 282 | 4.0 | 11.0 | 0.00 | 0.17 | 0.03 | 86 | 1010.5 |
| 20260505213040 | 58 | 222 | 4.0 | 9.0 | 0.00 | 0.17 | 0.03 | 86 | 1010.7 |
| 20260505211557 | 58 | 226 | 4.0 | 9.0 | 0.00 | 0.17 | 0.03 | 87 | 1010.7 |
| 20260505210049 | 57 | 225 | 3.0 | 10.0 | 0.00 | 0.17 | 0.03 | 87 | 1010.8 |
| 20260505204523 | 58 | 254 | 4.0 | 10.0 | 0.00 | 0.17 | 0.03 | 87 | 1010.8 |
| 20260505203025 | 58 | 172 | 3.0 | 9.0 | 0.00 | 0.17 | 0.03 | 86 | 1010.8 |
| 20260505201554 | 58 | 230 | 1.0 | 10.0 | 0.00 | 0.17 | 0.03 | 86 | 1010.8 |
| 20260505200039 | 59 | 230 | 2.0 | 11.0 | 0.00 | 0.17 | 0.03 | 85 | 1010.8 |
| 20260505194507 | 59 | 223 | 2.0 | 9.0 | 0.00 | 0.17 | 0.03 | 84 | 1010.9 |
| 20260505193042 | 60 | 243 | 3.0 | 8.0 | 0.00 | 0.17 | 0.03 | 84 | 1011.0 |
| 20260505191557 | 60 | 163 | 2.0 | 7.0 | 0.00 | 0.17 | 0.03 | 85 | 1011.0 |
| 20260505190048 | 59 | 242 | 3.0 | 9.0 | 0.00 | 0.17 | 0.03 | 88 | 1010.8 |
| 20260505184502 | 58 | 272 | 1.0 | 7.0 | 0.00 | 0.17 | 0.03 | 88 | 1010.8 |
| 20260505183043 | 58 | 178 | 2.0 | 6.0 | 0.00 | 0.17 | 0.03 | 87 | 1010.9 |
| 20260505181552 | 58 | 209 | 0.0 | 4.0 | 0.00 | 0.17 | 0.03 | 86 | 1010.8 |
| 20260505180042 | 59 | 250 | 1.0 | 8.0 | 0.00 | 0.17 | 0.03 | 86 | 1010.7 |
| 20260505174506 | 58 | 203 | 3.0 | 7.0 | 0.00 | 0.17 | 0.03 | 89 | 1010.4 |
| 20260505173037 | 57 | 214 | 2.0 | 5.0 | 0.00 | 0.17 | 0.03 | 90 | 1010.5 |
| 20260505171552 | 57 | 243 | 1.0 | 4.0 | 0.00 | 0.17 | 0.03 | 91 | 1010.4 |
| 20260505170040 | 56 | 263 | 0.0 | 3.0 | 0.00 | 0.17 | 0.03 | 92 | 1010.4 |
| 20260505164505 | 56 | 218 | 0.0 | 2.0 | 0.00 | 0.17 | 0.03 | 93 | 1010.5 |
| 20260505163030 | 55 | 228 | 0.0 | 3.0 | 0.00 | 0.17 | 0.03 | 93 | 1010.4 |
| 20260505161551 | 55 | 229 | 0.0 | 3.0 | 0.00 | 0.17 | 0.03 | 94 | 1010.4 |
| 20260505153030 | 54 | 232 | 0.0 | 1.0 | 0.00 | 0.17 | 0.03 | 95 | 1010.0 |
| 20260505151551 | 54 | 235 | 0.0 | 4.0 | 0.00 | 0.17 | 0.03 | 95 | 1010.1 |
| 20260505124503 | 52 | 245 | 2.0 | 5.0 | 0.00 | 0.17 | 0.03 | 94 | 1009.2 |
| 20260505123045 | 52 | 239 | 2.0 | 8.0 | 0.00 | 0.17 | 0.03 | 94 | 1009.2 |
| 20260505121551 | 52 | 69 | 1.0 | 7.0 | 0.00 | 0.17 | 0.03 | 94 | 1009.3 |
| 20260505120051 | 52 | 226 | 2.0 | 7.0 | 0.00 | 0.17 | 0.03 | 94 | 1009.2 |